This is the latest recevied weather packets stored in our database for station/object DN9EM-1. If no packets are shown the sender has not sent any weather packets the latest 10 day(s).
| Time | Temp. | Humidity | Pressure | Rain* | Wind** | Luminosity | Snow |
|---|---|---|---|---|---|---|---|
| 1777998374 | 13.33° C | 61% | 1012.1 hPa | 0 mm | - | - | - |
| 1777997771 | 13.89° C | 61% | 1012.1 hPa | 0 mm | - | - | - |
| 1777997169 | 13.89° C | 61% | 1012.3 hPa | 0 mm | - | - | - |
| 1777996566 | 13.89° C | 60% | 1012.2 hPa | 0 mm | - | - | - |
| 1777995963 | 13.89° C | 60% | 1012.3 hPa | 0 mm | - | - | - |
| 1777995361 | 14.44° C | 61% | 1012.4 hPa | 0 mm | - | - | - |
| 1777994758 | 13.89° C | 61% | 1012.4 hPa | 0 mm | - | - | - |
| 1777994156 | 14.44° C | 61% | 1012.4 hPa | 0 mm | - | - | - |
| 1777993553 | 14.44° C | 61% | 1012.4 hPa | 0 mm | - | - | - |
| 1777992950 | 14.44° C | 61% | 1012.4 hPa | 0 mm | - | - | - |
| 1777992348 | 14.44° C | 61% | 1012.3 hPa | 0 mm | - | - | - |
| 1777991745 | 14.44° C | 60% | 1012.4 hPa | 0 mm | - | - | - |
| 1777991143 | 14.44° C | 61% | 1012.5 hPa | 0 mm | - | - | - |
| 1777990540 | 14.44° C | 61% | 1012.4 hPa | 0 mm | - | - | - |
| 1777989938 | 14.44° C | 61% | 1012.5 hPa | 0 mm | - | - | - |
| 1777988733 | 14.44° C | 62% | 1012.6 hPa | 0 mm | - | - | - |
| 1777988130 | 14.44° C | 62% | 1012.7 hPa | 0 mm | - | - | - |
| 1777987527 | 14.44° C | 63% | 1012.7 hPa | 0 mm | - | - | - |
| 1777986925 | 13.89° C | 64% | 1012.7 hPa | 0 mm | - | - | - |
| 1777986322 | 14.44° C | 64% | 1012.8 hPa | 0 mm | - | - | - |
| 1777985720 | 14.44° C | 62% | 1012.7 hPa | 0 mm | - | - | - |
| 1777985117 | 15° C | 59% | 1012.7 hPa | 0 mm | - | - | - |
| 1777984515 | 15° C | 60% | 1012.8 hPa | 0 mm | - | - | - |
| 1777983972 | 14.44° C | 63% | 1012.7 hPa | 0 mm | - | - | - |
| 1777983370 | 14.44° C | 63% | 1012.8 hPa | 0 mm | - | - | - |
* Rain latest hour (hover to see other rain measurements)
** Current wind speed in m/s (hover to see current wind gust speed)